Regional Weather Roundup
Issued by NWS Green Bay, WI

Home | Current Version | Previous Version | Text Only | Print | Product List | Glossary On
Versions: 1 2 3 4 5 6 7 8 9 10 11 12 13 14 15 16 17 18 19 20 21 22 23 24 25 26 27 28 29 30 31 32 33 34 35 36 37 38 39 40 41 42 43 44 45 46 47 48 49 50
810
ASUS43 KGRB 202000
RWRGRB

NORTH-CENTRAL AND NORTHEAST WISCONSIN REGIONAL WEATHER ROUNDUP
NATIONAL WEATHER SERVICE GREEN BAY WI
300 PM CDT SUN AUG 20 2017

WIZ005-009-010>012-018-019-202100-
NORTH CENTRAL WISCONSIN

CITY           SKY/WX    TMP DP  RH WIND       PRES   REMARKS
IRONWOOD       PTSUNNY   79  68  69 W13       29.89S
MANITOWISH WTR NOT AVBL
ARBOR VITAE    NOT AVBL
EAGLE RIVER    NOT AVBL
LAND O LAKES   NOT AVBL
RHINELANDER    SUNNY     81  67  62 SW12      29.94F
PHILLIPS       NOT AVBL
ANTIGO         NOT AVBL
TOMAHAWK       NOT AVBL
MERRILL        NOT AVBL
$$

WIZ013-073-202100-
NORTHEAST WISCONSIN

CITY           SKY/WX    TMP DP  RH WIND       PRES   REMARKS
IRON MOUNTAIN  SUNNY     82  63  52 S17G24    29.91F
MARINETTE      CLOUDY    79  65  62 SW13      29.95F
$$

WIZ017-030-035>037-045-202100-
CENTRAL WISCONSIN

CITY           SKY/WX    TMP DP  RH WIND       PRES   REMARKS
MEDFORD        NOT AVBL
WAUSAU         SUNNY     82  63  52 SW17G25   29.94F
MOSINEE        NOT AVBL
MARSHFIELD     SUNNY     82  63  52 W14       29.96F
WISC RAPIDS    PTSUNNY   82  66  58 SW9       29.98F
STEVENS POINT  NOT AVBL
WAUPACA        NOT AVBL
SHAWANO        NOT AVBL
CLINTONVILLE   NOT AVBL
WAUTOMA        CLOUDY    82  66  58 W9        29.98F
$$

WIZ038-039-048-051-202100-
FOX VALLEY

CITY           SKY/WX    TMP DP  RH WIND       PRES   REMARKS
NWS GREEN BAY  CLOUDY    77  69  76 S10       29.97F
APPLETON       CLOUDY    79  64  61 SW13      29.97F
OSHKOSH        CLOUDY    79  68  69 S13       29.98F
FOND DU LAC    CLOUDY    79  66  64 SW10      29.99F
$$

WIZ022-050-052-202100-
EAST CENTRAL WISCONSIN

CITY           SKY/WX    TMP DP  RH WIND       PRES   REMARKS
EPHRAIM        NOT AVBL
WASHINGTON ISL NOT AVBL
STURGEON BAY   CLOUDY    76  68  76 S12       29.97F
MANITOWOC      NOT AVBL
SHEBOYGAN      MOSUNNY   80  71  74 S10       29.99F
$$

LMZ563-521-522-541>543-202100-
LAKESHORE

STATION/POSITION TIME  TEMP    WIND        PRES    VSBY  WAVE
                       AIR SEA DIR/SP/G                  HT/PER
                 (UTC) (F)     (DEG/KT/KT) (MB)    (MI)  (FT/S)
SHEBOYGAN LKSHOR 1900   71     170/ 11/ 12 1015.7F
KEWAUNEE LKSHORE 1930   69     180/ 11/ 12 1014.7F
NORTHPORT PIER   1940   75     160/  6/ 13 1013.9F
N MID LAKE BUOY  1850   69 67  180/ 16/ 17 1015.4F         2/ 4
S GREEN BAY BUOY 1930   74 72  210/  8/ 10 1014.5F
SISTER BAY LKSHO 1918   79     180/ 13/ 15   N/A
MENOMINEE LKSHOR 1930   77     190/ 12/ 16 1013.9F
$$




USA.gov is the U.S. government's official web portal to all federal, state and local government web resources and services.